This is the latest recevied weather packets stored in our database for station/object KJ4EBE. If no packets are shown the sender has not sent any weather packets the latest 10 day(s).
| Time | Temp. | Humidity | Pressure | Rain* | Wind** | Luminosity | Snow |
|---|---|---|---|---|---|---|---|
| 1777596930 | 16.67° C | 99% | 1012.2 hPa | 0 mm | - | 1 W/m² | - |
| 1777596627 | 16.67° C | 99% | 1012.4 hPa | 0 mm | - | 2 W/m² | - |
| 1777596323 | 16.67° C | 99% | 1012.2 hPa | 0 mm | - | 2 W/m² | - |
| 1777596022 | 16.67° C | 99% | 1011.9 hPa | 0 mm | - | 2 W/m² | - |
| 1777595716 | 16.67° C | 99% | 1012.1 hPa | 0 mm | - | 3 W/m² | - |
| 1777595412 | 16.67° C | 99% | 1012.1 hPa | 0 mm | - | 3 W/m² | - |
| 1777595109 | 16.67° C | 99% | 1011.8 hPa | 0 mm | - | 4 W/m² | - |
| 1777594805 | 16.67° C | 99% | 1011.7 hPa | 0 mm | - | 7 W/m² | - |
| 1777594501 | 16.11° C | 99% | 1011.9 hPa | 0 mm | - | 5 W/m² | - |
| 1777594197 | 16.11° C | 99% | 1012.1 hPa | 0 mm | - | 6 W/m² | - |
| 1777593893 | 16.67° C | 99% | 1012 hPa | 0 mm | - | 7 W/m² | - |
| 1777593589 | 16.67° C | 99% | 1011.7 hPa | 0 mm | - | 8 W/m² | - |
| 1777593284 | 16.67° C | 99% | 1011.4 hPa | 0 mm | - | 10 W/m² | - |
| 1777592979 | 16.67° C | 99% | 1011.3 hPa | 0 mm | - | 14 W/m² | - |
| 1777592673 | 16.67° C | 99% | 1011 hPa | 0 mm | - | 22 W/m² | - |
| 1777592364 | 16.67° C | 99% | 1010.3 hPa | 0 mm | - | 18 W/m² | - |
| 1777592060 | 16.67° C | 99% | 1010.6 hPa | 0 mm | - | 27 W/m² | - |
| 1777591758 | 16.67° C | 99% | 1010.3 hPa | 0.51 mm | - | 27 W/m² | - |
| 1777591453 | 16.67° C | 99% | 1010.8 hPa | 0.51 mm | - | 30 W/m² | - |
| 1777591149 | 16.67° C | 99% | 1011.1 hPa | 0.51 mm | - | 24 W/m² | - |
| 1777590844 | 16.67° C | 99% | 1011.3 hPa | 1.27 mm | - | 37 W/m² | - |
| 1777590541 | 16.67° C | 99% | 1011.6 hPa | 1.27 mm | - | 42 W/m² | - |
| 1777590236 | 16.67° C | 99% | 1011.3 hPa | 0.51 mm | - | 39 W/m² | - |
| 1777589934 | 16.67° C | 99% | 1011.7 hPa | 0 mm | - | 26 W/m² | - |
| 1777589630 | 16.67° C | 99% | 1011.9 hPa | 0 mm | - | 20 W/m² | - |
* Rain latest hour (hover to see other rain measurements)
** Current wind speed in m/s (hover to see current wind gust speed)